This is the latest recevied weather packets stored in our database for station/object WX4LTG. If no packets are shown the sender has not sent any weather packets the latest 10 day(s).
| Time | Temp. | Humidity | Pressure | Rain* | Wind** | Luminosity | Snow |
|---|---|---|---|---|---|---|---|
| 1776951078 | 16.67° C | 36% | 1013.1 hPa | 0 mm | - | 47 W/m² | - |
| 1776950774 | 16.11° C | 37% | 1012.8 hPa | 0 mm | - | 39 W/m² | - |
| 1776950470 | 16.11° C | 37% | 1012.9 hPa | 0 mm | - | 32 W/m² | - |
| 1776950169 | 16.11° C | 38% | 1012.8 hPa | 0 mm | - | 25 W/m² | - |
| 1776949866 | 15.56° C | 39% | 1012.6 hPa | 0 mm | - | 16 W/m² | - |
| 1776949562 | 16.11° C | 39% | 1012.5 hPa | 0 mm | - | 12 W/m² | - |
| 1776949257 | 15.56° C | 37% | 1012.7 hPa | 0 mm | - | 10 W/m² | - |
| 1776948953 | 15.56° C | 37% | 1012.6 hPa | 0 mm | - | 8 W/m² | - |
| 1776948650 | 15.56° C | 36% | 1012.5 hPa | 0 mm | - | 5 W/m² | - |
| 1776948347 | 15.56° C | 36% | 1012.4 hPa | 0 mm | - | 3 W/m² | - |
| 1776948046 | 16.11° C | 35% | 1012.4 hPa | 0 mm | - | 1 W/m² | - |
| 1776947742 | 16.11° C | 35% | 1012.5 hPa | 0 mm | - | 0 W/m² | - |
| 1776947437 | 15.56° C | 35% | 1012.5 hPa | 0 mm | - | 0 W/m² | - |
| 1776947135 | 16.11° C | 34% | 1012.4 hPa | 0 mm | - | 0 W/m² | - |
| 1776946831 | 15.56° C | 35% | 1012.3 hPa | 0 mm | - | 0 W/m² | - |
| 1776946527 | 16.11° C | 35% | 1012.1 hPa | 0 mm | - | 0 W/m² | - |
| 1776946225 | 16.11° C | 35% | 1011.8 hPa | 0 mm | - | 0 W/m² | - |
| 1776945922 | 16.11° C | 35% | 1012 hPa | 0 mm | - | 0 W/m² | - |
| 1776945618 | 16.11° C | 36% | 1011.9 hPa | 0 mm | - | 0 W/m² | - |
| 1776945315 | 16.11° C | 37% | 1011.8 hPa | 0 mm | - | 0 W/m² | - |
| 1776945015 | 16.11° C | 37% | 1011.7 hPa | 0 mm | - | 0 W/m² | - |
| 1776944711 | 16.11° C | 39% | 1011.8 hPa | 0 mm | - | 0 W/m² | - |
| 1776944408 | 16.67° C | 37% | 1012.1 hPa | 0 mm | - | 0 W/m² | - |
| 1776944103 | 16.67° C | 37% | 1011.7 hPa | 0 mm | - | 0 W/m² | - |
| 1776943800 | 17.22° C | 36% | 1012 hPa | 0 mm | - | 0 W/m² | - |
* Rain latest hour (hover to see other rain measurements)
** Current wind speed in m/s (hover to see current wind gust speed)